{"data":{"norad_id":65396,"epoch":"2026-09-20T02:29:49.475040Z","epoch_age_seconds":148984,"freshness":"FRESH","line1":"1 65396U 25191T   26263.10404485  .00016472  00000+0  51150-3 0  9996","line2":"2 65396  97.2832 129.0704 0001403  88.5614 271.5789 15.33440754 59576","mean_motion":15.33440754,"eccentricity":0.0001403,"inclination_deg":97.2832,"raan_deg":129.0704,"arg_perigee_deg":88.5614,"mean_anomaly_deg":271.5789,"bstar":0.0005115,"rev_number":5957,"period_min":93.906464677148,"perigee_km":464.59563751506,"apogee_km":466.51597771687,"semimajor_km":6843.692807616,"source":"CELESTRAK","updated_at":"2026-09-21T09:00:35.600584Z"}}